Temperature
10 10 10 10 10 10 10 10 11 11 11 11 11 11 11 11 11 11 11 11 11 11 12 12 12 12 12 12 11 12 11 11 11 11 11 11 11 11 11 11 11 11 11
9 9 9 9 9 9 10 10 10 10 11 11 11 11 11 11 11 11 11 11 11 11 11 11 11 11 11 11 11 11 11 11 11 11 10 10 10 11 11 11 11 11 11
9 8 9 9 9 9 9 9 9 10 10 10 10 10 10 10 10 10 11 11 11 11 11 11 11 11 11 11 11 11 11 11 11 11 10 10 11 10 10 10 10 10 10
8 8 8 8 9 9 9 9 9 9 10 10 10 10 10 10 10 10 10 10 10 10 10 11 10 10 10 10 10 10 10 10 10 10 10 10 10 10 9 9 10 10 10
8 8 8 8 8 9 9 9 9 9 9 9 10 10 10 10 10 10 10 10 10 10 10 10 10 10 10 10 10 10 10 10 10 10 10 10 10 10 9 9 9 9 9
8 8 8 8 8 8 8 8 9 9 9 9 9 9 9 9 9 9 9 9 10 10 10 10 10 10 10 10 10 9 9 9 9 9 9 9 9 9 9 9 8 8 9
7 7 7 7 8 8 8 8 8 8 8 9 9 9 9 9 9 9 9 9 9 9 9 9 9 9 9 9 9 9 9 9 9 9 9 9 9 9 9 9 8 8 8
7 7 7 7 7 8 8 8 8 8 8 8 8 8 9 9 9 9 9 8 8 9 9 9 9 9 9 9 9 9 9 9 9 9 9 9 9 9 9 8 8 8 7
6 6 6 7 7 7 7 8 8 8 8 8 8 8 8 8 8 8 8 8 8 8 8 8 8 8 8 8 8 8 8 8 8 8 8 8 8 8 8 8 8 7 7
6 6 6 6 7 7 7 7 7 7 7 8 8 8 8 8 8 8 8 8 8 8 8 8 8 8 8 7 7 8 8 8 8 8 8 8 8 8 8 7 7 7 7
6 6 6 6 6 6 6 6 6 6 7 7 7 7 7 7 7 7 7 7 7 7 7 7 7 7 7 7 7 7 7 7 7 7 7 7 7 7 7 7 7 7 7
5 5 5 5 5 6 6 6 6 6 6 6 6 6 6 7 7 7 7 7 7 7 7 7 7 7 7 7 7 7 7 6 6 6 6 6 6 6 6 6 6 6 6
4 5 5 5 5 5 5 6 6 6 6 6 6 6 6 6 6 6 6 6 6 6 6 6 6 6 6 6 6 6 6 6 6 6 6 6 6 6 6 6 6 6 5
4 4 4 4 5 5 5 5 5 5 5 5 5 5 5 5 5 6 6 6 5 5 5 5 5 5 5 5 5 5 5 5 5 5 5 5 5 5 5 5 5 5 5
3 4 4 4 4 4 4 5 5 5 5 5 5 5 5 5 5 5 5 5 5 5 5 5 5 5 5 5 5 5 5 5 5 5 5 5 5 5 5 5 5 4 4
3 3 3 3 4 4 4 4 4 5 5 5 5 5 5 5 5 4 4 4 4 4 4 4 4 4 4 4 4 4 4 4 4 4 4 4 4 4 4 4 4 4 4
2 3 3 3 3 3 4 4 4 4 4 4 4 4 4 4 4 4 4 4 4 4 3 3 3 3 3 4 4 3 3 3 3 3 3 3 3 3 3 3 3 3 3
2 2 2 3 3 3 4 4 4 4 4 4 4 4 4 3 3 3 3 3 3 3 3 3 3 3 3 3 3 3 3 3 3 3 3 3 3 3 3 3 3 3 3
2 2 2 3 3 3 3 3 3 3 3 3 3 3 3 3 3 3 2 2 2 2 2 2 2 2 2 2 2 2 2 2 2 2 2 2 2 2 2 2 2 2 2
2 2 2 2 2 2 2 2 2 2 2 2 2 2 2 2 2 2 2 2 2 2 2 2 2 2 2 2 2 2 2 2 2 2 2 2 2 2 2 2 2 2 2
1 1 1 2 2 2 2 2 2 2 2 2 2 2 2 2 1 1 1 1 1 1 1 1 1 1 1 1 1 1 1 1 1 1 1 1 1 1 1 1 1 1 1
1 1 1 1 1 1 1 1 1 1 1 1 1 1 1 1 1 1 1 1 0 0 0 0 0 1 1 1 1 1 1 1 0 0 0 0 1 1 1 1 1 0 0
0 1 0 0 0 0 0 0 0 0 0 0 0 0 0 0 0 0 0 -0 -0 -0 -0 -0 -0 -0 0 0 0 0 0 -0 -0 -0 -0 -0 -0 -0 0 0 0 -0 -0
-0 -0 -0 -0 -1 -1 -1 -0 -0 -0 -0 -0 -0 -0 -0 -1 -1 -1 -1 -0 -1 -1 -1 -1 -1 -1 -1 -1 -1 -0 -0 -1 -1 -1 -1 -1 -1 -1 -1 -1 -1 -1 -1
-1 -1 -1 -1 -1 -1 -1 -1 -1 -1 -1 -1 -1 -1 -1 -1 -1 -1 -1 -1 -1 -1 -1 -1 -1 -1 -1 -1 -1 -1 -1 -1 -1 -1 -1 -1 -1 -1 -1 -1 -1 -1 -1
-2 -2 -2 -2 -2 -2 -2 -2 -2 -2 -2 -2 -2 -2 -2 -2 -2 -2 -2 -2 -2 -2 -2 -2 -2 -2 -2 -1 -2 -2 -2 -2 -2 -2 -2 -2 -2 -2 -2 -2 -2 -2 -2
Wind_Speed
5 3 2 2 2 2 3 3 3 4 4 5 5 5 5 4 4 4 5 6 6 6 5 4 5 4 4 4 4 3 3 2 2 3 2 2 2 3 3 3 3 2 2
4 3 3 2 3 2 2 3 3 4 5 5 5 4 4 3 3 4 5 5 5 6 5 5 4 5 4 4 4 3 3 2 2 3 3 3 3 3 2 3 2 2 2
6 4 3 3 3 3 3 3 3 4 4 5 4 4 4 3 2 3 3 4 5 5 5 5 4 5 5 4 5 4 4 3 3 2 2 2 3 2 2 3 3 2 2
7 5 4 3 3 3 2 3 3 3 4 6 6 7 5 4 3 3 3 4 4 5 5 5 5 5 4 5 5 4 4 4 3 3 1 1 1 2 2 3 3 2 2
6 5 4 4 3 2 3 3 3 3 4 5 6 6 5 4 3 3 3 3 3 3 4 4 5 4 4 5 5 5 4 4 4 3 3 2 2 2 2 3 2 2 2
5 5 4 4 3 3 3 3 3 3 3 4 5 5 5 5 4 4 3 2 2 2 3 3 3 4 4 5 5 5 6 5 4 4 4 3 3 3 3 3 3 3 2
6 5 4 4 4 4 4 3 4 3 3 3 4 4 4 5 5 4 4 3 2 2 2 3 3 3 3 4 4 5 5 6 5 5 4 4 4 3 3 3 3 3 2
5 5 5 5 4 4 4 4 4 4 4 4 4 4 4 3 3 3 3 3 2 2 2 2 2 3 4 4 4 4 4 4 5 5 4 4 4 4 3 3 3 3 3
5 5 5 5 4 4 5 5 5 4 4 4 3 3 4 3 3 3 3 2 2 2 2 2 2 2 3 3 4 4 4 4 4 4 4 4 3 3 3 4 4 5 4
4 5 5 5 5 5 5 5 5 5 4 4 3 2 3 3 3 3 3 3 2 2 2 3 2 2 2 3 3 3 4 4 4 3 4 3 3 3 3 4 4 5 5
5 5 5 5 5 5 5 5 4 4 4 4 3 3 2 2 3 2 2 2 2 2 2 2 3 3 3 3 4 4 4 4 4 4 4 4 3 3 3 3 3 4 5
4 5 5 5 5 5 5 5 5 5 4 3 3 3 2 2 3 2 2 2 2 2 2 2 3 3 3 3 4 4 4 4 4 4 5 4 3 4 4 4 4 4 5
4 4 4 5 5 5 5 5 5 5 4 4 4 3 3 3 3 2 2 2 2 2 2 2 2 2 3 3 3 4 4 4 5 5 5 5 5 5 4 5 4 4 4
4 4 4 5 5 5 5 5 5 4 4 4 4 4 3 3 3 2 2 2 2 2 2 2 2 2 3 3 3 4 4 5 5 5 5 6 6 6 6 5 5 5 4
4 5 5 4 4 4 4 5 4 4 4 4 4 4 3 3 3 2 2 2 2 2 2 2 2 3 3 3 3 4 5 5 5 5 5 5 5 6 6 5 6 6 5
4 4 4 4 5 4 4 4 4 4 5 5 4 3 3 3 3 3 2 2 2 2 2 2 3 3 3 3 4 4 4 5 6 5 5 5 5 6 6 7 7 7 7
5 4 4 4 4 4 4 4 4 4 5 4 3 3 3 3 3 2 2 2 2 2 3 3 3 4 4 4 5 5 5 5 5 6 5 5 5 6 6 6 7 8 9
4 4 3 3 3 3 3 3 3 3 4 3 3 3 3 3 3 3 3 3 3 3 3 4 4 4 4 5 6 6 6 5 5 5 6 6 6 6 6 6 6 7 8
3 3 3 2 2 2 2 3 3 3 3 3 3 3 4 4 3 3 3 3 3 3 3 4 5 5 5 5 6 6 4 4 5 5 6 6 6 6 6 6 7 7 7
1 2 2 2 2 2 3 3 3 4 4 4 3 3 3 3 3 3 3 3 3 4 4 4 5 5 6 6 7 7 4 5 5 5 5 6 7 6 6 7 7 8 8
1 2 2 2 2 3 3 3 3 3 3 2 2 2 2 3 3 3 3 3 3 4 4 4 4 5 5 6 7 7 5 5 5 5 5 5 6 8 8 8 8 9 8
1 2 2 1 1 2 3 3 2 2 2 2 2 2 2 2 3 3 3 3 4 4 4 4 4 3 4 4 5 7 7 6 6 6 5 5 6 8 10 9 9 9 8
1 1 1 1 0 1 2 3 2 2 2 2 2 2 2 2 3 3 3 3 3 3 4 4 4 3 3 3 5 7 7 8 6 6 7 8 9 9 8 8 9 8 7
0 1 1 1 1 1 1 1 1 1 2 2 2 2 2 2 2 2 3 3 4 4 4 4 4 4 4 3 3 4 5 6 6 6 6 7 8 7 7 7 7 6 7
0 1 1 1 1 1 1 1 1 1 2 2 2 2 2 3 3 3 3 4 5 5 5 5 5 5 5 5 6 5 5 5 5 5 5 5 5 5 6 6 6 6 6
1 1 1 1 1 1 1 1 1 1 2 2 3 3 3 3 3 3 3 4 6 7 8 8 8 7 8 8 9 9 9 9 8 6 6 6 6 6 6 6 6 6 6
Wind_Direction
237 235 240 228 206 194 182 184 185 173 166 171 169 173 178 176 172 168 171 173 170 171 174 170 169 175 176 177 182 181 178 176 185 182 177 180 189 194 198 202 199 191 192
230 234 226 207 193 186 182 174 184 174 171 177 177 180 170 170 173 167 168 172 171 170 171 171 175 178 174 174 178 183 184 177 182 195 184 193 193 198 201 201 209 216 210
220 220 213 203 191 183 187 181 180 173 171 170 163 149 139 139 156 168 171 176 173 170 165 173 180 182 180 182 183 185 191 187 180 194 205 197 212 195 187 199 206 216 231
219 209 201 195 184 186 181 177 171 165 167 166 164 164 170 177 188 184 181 177 176 176 174 173 178 187 185 190 191 188 197 192 185 181 221 258 180 196 197 193 200 214 236
205 195 186 181 166 159 156 156 152 148 151 160 166 167 172 174 162 160 165 171 172 177 179 180 183 190 193 195 197 195 195 201 200 192 185 196 208 214 218 221 216 224 229
194 184 171 156 147 146 144 143 145 141 142 152 162 166 169 162 155 160 166 173 175 179 180 178 186 193 198 196 199 202 201 203 206 205 201 197 204 209 214 228 233 244 249
186 177 171 166 160 156 155 154 149 139 136 144 159 169 171 166 169 173 175 175 180 185 198 195 194 198 201 197 197 201 207 208 209 212 212 213 220 225 227 227 235 252 259
187 181 182 179 175 168 164 160 158 148 144 144 153 164 167 170 172 175 175 184 194 195 197 199 195 197 201 201 198 197 205 207 212 220 218 218 224 219 224 229 228 243 249
194 191 187 185 183 175 170 166 161 151 148 148 145 152 162 167 167 171 177 186 190 180 180 186 195 197 195 199 200 199 202 204 211 217 218 221 224 229 229 231 226 229 244
200 199 194 193 189 179 167 160 161 157 152 148 146 143 152 154 159 164 167 177 190 188 177 178 185 196 201 198 198 201 206 204 212 211 215 228 230 230 232 232 235 236 240
201 198 193 190 184 173 166 162 163 157 153 152 151 142 143 153 154 160 172 180 184 189 193 201 194 194 205 209 204 208 209 212 217 216 219 229 229 228 231 233 236 239 238
197 189 187 180 177 175 173 172 171 168 167 162 156 152 150 160 165 172 178 180 181 191 200 198 194 196 206 214 212 211 213 216 221 225 226 229 228 228 229 228 230 239 242
187 184 185 185 185 187 184 180 179 176 174 170 167 165 171 178 181 185 186 184 185 189 192 192 192 199 209 214 218 220 220 222 227 228 227 230 227 229 226 228 231 236 242
187 189 193 195 192 193 191 187 186 181 178 178 179 183 190 196 195 196 199 200 195 193 201 213 215 216 218 218 218 223 227 229 233 233 230 232 231 233 228 228 230 230 232
197 199 200 199 195 194 194 193 191 187 185 187 193 198 201 199 192 195 201 204 204 205 204 213 224 231 233 230 224 229 232 234 237 238 238 238 238 240 241 235 232 230 230
204 201 199 197 199 199 197 197 200 198 193 194 202 200 199 196 197 200 201 199 205 210 215 222 230 240 242 227 233 240 240 240 237 238 242 243 239 237 238 240 239 237 234
207 207 206 205 204 204 200 196 200 194 192 194 202 202 200 196 197 201 205 209 212 213 224 231 233 242 247 233 233 236 242 244 246 243 243 245 244 238 243 240 236 240 240
211 211 210 209 205 200 197 186 188 191 188 192 201 205 206 203 202 206 216 226 226 226 235 240 241 245 246 236 230 230 238 244 247 246 247 249 251 247 249 254 252 251 248
209 210 205 195 183 180 174 161 177 184 187 199 204 207 208 205 205 211 221 231 232 237 245 245 243 244 247 237 231 232 237 240 247 252 252 251 253 248 249 255 256 260 259
186 180 168 160 166 175 169 164 179 186 197 207 212 213 213 210 212 218 227 239 237 240 247 249 246 244 248 240 234 234 232 239 248 252 252 249 252 255 252 256 257 259 264
155 152 149 158 170 169 164 166 179 205 215 205 203 216 220 214 215 221 230 232 235 238 242 249 253 250 248 243 237 236 231 236 246 252 256 256 252 260 260 262 260 258 266
117 133 133 134 143 159 162 169 197 217 209 200 205 221 226 219 213 213 226 231 229 231 239 245 254 256 256 255 244 239 241 245 250 255 258 259 258 265 265 264 260 259 260
86 107 130 129 142 189 183 182 208 202 191 196 218 231 235 228 222 219 224 235 233 234 242 247 254 260 262 259 254 250 248 248 253 258 259 264 265 264 262 256 258 256 251
63 139 151 165 218 241 218 204 211 199 191 208 233 241 240 241 239 237 233 235 236 240 245 249 254 261 263 260 258 256 253 250 255 260 258 259 261 259 260 260 256 252 249
274 196 189 198 226 245 254 252 228 205 210 237 258 260 255 249 252 254 252 248 248 250 252 254 255 256 261 263 268 269 265 264 264 272 271 267 263 263 263 261 260 257 253
232 209 216 221 246 265 283 289 266 227 220 243 257 262 259 254 253 256 266 259 252 263 262 261 261 264 263 268 268 270 270 270 263 265 260 260 260 261 262 263 265 262 258
Height
1476 1476 1477 1477 1477 1477 1479 1480 1481 1482 1485 1487 1489 1492 1494 1496 1498 1500 1502 1504 1506 1508 1510 1512 1514 1516 1517 1518 1520 1521 1523 1524 1525 1526 1527 1528 1529 1530 1531 1532 1533 1533 1533
1473 1474 1474 1474 1474 1475 1476 1477 1478 1480 1482 1485 1487 1490 1492 1494 1496 1498 1500 1502 1504 1506 1508 1509 1511 1513 1515 1516 1517 1519 1520 1521 1522 1524 1525 1527 1529 1528 1528 1529 1530 1530 1531
1470 1471 1471 1471 1471 1472 1474 1475 1476 1478 1480 1483 1486 1488 1490 1492 1494 1496 1497 1500 1502 1504 1505 1507 1509 1510 1511 1513 1514 1516 1518 1518 1520 1521 1523 1524 1525 1526 1526 1526 1527 1528 1528
1468 1468 1468 1469 1469 1471 1472 1473 1475 1477 1478 1481 1483 1485 1487 1489 1492 1493 1495 1498 1500 1502 1503 1504 1506 1508 1509 1510 1512 1513 1515 1516 1517 1518 1520 1521 1521 1523 1524 1525 1525 1525 1526
1465 1465 1466 1467 1468 1470 1471 1472 1473 1475 1476 1479 1481 1483 1486 1488 1490 1492 1493 1495 1497 1499 1501 1502 1503 1505 1506 1508 1509 1511 1512 1513 1515 1515 1516 1517 1518 1519 1521 1521 1522 1522 1523
1462 1464 1465 1466 1467 1468 1470 1471 1472 1473 1475 1477 1479 1481 1484 1485 1487 1489 1491 1493 1494 1496 1497 1499 1500 1502 1503 1505 1506 1508 1509 1510 1512 1513 1513 1514 1515 1516 1517 1518 1518 1519 1519
1460 1461 1462 1464 1465 1466 1468 1469 1471 1472 1473 1475 1478 1480 1482 1483 1485 1487 1488 1490 1491 1493 1494 1495 1497 1498 1500 1501 1503 1504 1505 1507 1508 1509 1510 1511 1512 1513 1514 1515 1515 1515 1516
1457 1458 1460 1461 1463 1464 1466 1467 1469 1471 1472 1474 1476 1478 1480 1481 1483 1485 1486 1487 1489 1490 1491 1492 1494 1495 1496 1498 1500 1500 1502 1503 1504 1505 1506 1507 1509 1510 1510 1511 1512 1512 1513
1455 1456 1457 1459 1460 1462 1464 1466 1467 1469 1471 1472 1474 1476 1478 1479 1481 1483 1484 1485 1486 1488 1489 1490 1491 1492 1493 1494 1496 1497 1498 1499 1500 1501 1502 1503 1504 1505 1506 1507 1508 1510 1509
1452 1454 1455 1457 1459 1460 1462 1464 1466 1467 1469 1471 1472 1474 1476 1477 1479 1480 1482 1483 1484 1485 1486 1487 1488 1489 1490 1491 1492 1493 1494 1495 1496 1497 1498 1499 1500 1501 1502 1503 1503 1504 1505
1449 1451 1452 1454 1457 1458 1460 1462 1464 1466 1467 1469 1471 1472 1474 1475 1477 1478 1479 1480 1481 1482 1483 1484 1485 1486 1487 1488 1489 1490 1490 1491 1492 1493 1494 1495 1496 1497 1498 1498 1499 1500 1500
1448 1449 1451 1452 1454 1456 1458 1460 1462 1464 1466 1467 1469 1470 1471 1473 1474 1476 1477 1478 1478 1479 1480 1481 1481 1482 1484 1485 1485 1486 1487 1487 1488 1489 1490 1491 1492 1493 1493 1494 1494 1495 1495
1445 1447 1448 1450 1452 1454 1456 1458 1460 1462 1464 1465 1467 1468 1470 1471 1472 1473 1474 1475 1476 1476 1477 1477 1478 1479 1480 1481 1482 1482 1483 1483 1484 1485 1486 1487 1488 1488 1489 1489 1490 1490 1491
1444 1445 1446 1448 1450 1451 1453 1456 1458 1460 1462 1463 1465 1466 1467 1468 1469 1470 1471 1472 1472 1473 1474 1474 1475 1475 1476 1477 1478 1478 1479 1479 1480 1481 1482 1482 1483 1484 1484 1485 1485 1486 1486
1442 1443 1444 1445 1447 1449 1451 1453 1455 1457 1459 1461 1462 1463 1465 1466 1467 1467 1468 1469 1469 1470 1470 1471 1471 1472 1473 1473 1473 1474 1475 1475 1476 1476 1477 1478 1478 1479 1480 1480 1481 1481 1481
1439 1440 1441 1443 1444 1446 1447 1449 1451 1454 1456 1457 1459 1460 1461 1463 1464 1464 1465 1466 1466 1467 1467 1468 1468 1468 1469 1469 1470 1470 1471 1471 1471 1472 1472 1473 1473 1474 1474 1475 1476 1476 1476
1437 1437 1438 1440 1441 1443 1445 1447 1449 1451 1452 1454 1455 1457 1458 1459 1460 1461 1462 1462 1463 1463 1464 1464 1464 1464 1465 1465 1466 1466 1467 1467 1467 1467 1467 1467 1468 1468 1469 1469 1470 1470 1470
1434 1435 1436 1437 1439 1440 1442 1444 1446 1448 1449 1450 1452 1453 1454 1455 1456 1457 1458 1458 1459 1459 1459 1460 1460 1460 1460 1461 1461 1462 1462 1462 1462 1462 1462 1463 1463 1463 1464 1464 1464 1464 1464
1432 1433 1434 1435 1436 1438 1439 1441 1443 1444 1446 1447 1448 1450 1451 1451 1452 1453 1454 1455 1455 1456 1456 1456 1456 1456 1456 1456 1457 1457 1457 1457 1457 1457 1458 1458 1458 1459 1459 1459 1458 1458 1459
1431 1431 1432 1433 1434 1436 1438 1439 1440 1441 1442 1443 1444 1446 1447 1448 1448 1449 1450 1451 1452 1452 1452 1451 1451 1451 1451 1451 1452 1452 1452 1452 1452 1453 1453 1454 1454 1454 1453 1454 1453 1453 1453
1429 1430 1431 1431 1432 1434 1435 1436 1436 1438 1439 1440 1441 1442 1443 1444 1445 1446 1446 1447 1447 1447 1447 1447 1447 1447 1447 1447 1447 1448 1448 1448 1448 1448 1448 1448 1449 1448 1448 1448 1448 1447 1447
1428 1428 1429 1429 1430 1431 1433 1433 1435 1436 1436 1437 1438 1439 1440 1440 1441 1442 1442 1443 1443 1443 1443 1443 1443 1443 1443 1443 1443 1443 1444 1443 1443 1442 1442 1443 1443 1443 1443 1442 1442 1442 1442
1426 1427 1428 1428 1429 1430 1431 1432 1432 1433 1434 1435 1435 1436 1436 1437 1438 1438 1438 1439 1439 1439 1439 1439 1439 1439 1439 1439 1439 1439 1439 1439 1438 1438 1438 1437 1437 1437 1436 1436 1436 1436 1435
1425 1426 1427 1427 1428 1428 1429 1430 1430 1431 1431 1432 1432 1433 1433 1433 1434 1434 1435 1435 1435 1435 1435 1435 1435 1434 1434 1434 1434 1434 1434 1433 1433 1432 1432 1432 1431 1431 1430 1430 1429 1429 1429
1424 1425 1425 1425 1426 1427 1427 1428 1428 1429 1429 1429 1429 1430 1430 1430 1430 1431 1431 1431 1432 1432 1432 1431 1431 1430 1430 1430 1430 1429 1429 1428 1428 1427 1426 1426 1426 1425 1424 1424 1423 1423 1423
1423 1424 1424 1424 1424 1425 1425 1426 1426 1426 1426 1426 1427 1427 1427 1427 1427 1427 1427 1427 1428 1427 1427 1427 1427 1425 1425 1425 1424 1424 1424 1423 1422 1422 1420 1420 1420 1419 1419 1418 1417 1417 1417